This demonstration page uses our WeatherBlox Daily Observations layout. Learn more.

Left ArrowRight Arrow

39.08367, -84.50855

Hourly Observations for December 22, 2016

Temp ( °F °C ) Dew Point ( °F °C ) Humidity (%) Winds ( mph kmh ) Pressure ( in mb ) Visibility ( mi km ) Precip ( " mm )
12:53 am 00:53 Clear 31 -0.6 26 -3.3 82 82 Calm 30.08 1019 10 16 0.00 0.00
1:53 am 01:53 Clear 34 1.1 28 -2.2 79 79 S 5 7 30.08 1019 10 16 0.00 0.00
2:53 am 02:53 Clear 32 0 27 -2.8 82 82 VRB 3 6 30.10 1019 10 16 0.00 0.00
3:53 am 03:53 Clear 34 1.1 27 -2.8 76 76 SW 6 9 30.11 1020 10 16 0.00 0.00
4:53 am 04:53 Clear 33 0.6 26 -3.3 75 75 WSW 6 9 30.12 1020 10 16 0.00 0.00
5:53 am 05:53 Clear 33 0.6 26 -3.3 75 75 WSW 5 7 30.14 1021 10 16 0.00 0.00
6:53 am 06:53 Clear 32 0 26 -3.3 79 79 WSW 5 7 30.18 1022 10 16 0.00 0.00
7:53 am 07:53 Clear 33 0.6 27 -2.8 78 78 W 3 6 30.22 1023 10 16 0.00 0.00
8:53 am 08:53 Cloudy 35 1.7 29 -1.7 78 78 W 3 6 30.25 1025 10 16 0.00 0.00
9:53 am 09:53 Cloudy 37 2.8 31 -0.6 79 79 WSW 3 6 30.29 1026 10 16 0.00 0.00
10:53 am 10:53 Cloudy 38 3.3 30 -1.1 73 73 WNW 5 7 30.32 1027 10 16 0.00 0.00
11:53 am 11:53 Cloudy 40 4.4 31 -0.6 70 70 NW 6 9 30.34 1027 10 16 0.00 0.00
12:53 pm 12:53 Cloudy 40 4.4 29 -1.7 65 65 NNW 8 13 30.34 1028 10 16 0.00 0.00
1:53 pm 13:53 Mostly Cloudy 42 5.6 29 -1.7 60 60 NNW 9 15 30.34 1028 10 16 0.00 0.00
2:53 pm 14:53 Partly Cloudy 44 6.7 29 -1.7 55 55 N 7 11 30.35 1028 10 16 0.00 0.00
3:53 pm 15:53 Partly Cloudy 43 6.1 29 -1.7 58 58 N 3 6 30.38 1029 10 16 0.00 0.00
4:53 pm 16:53 Sunny 40 4.4 28 -2.2 63 63 NNW 6 9 30.40 1030 10 16 0.00 0.00
5:53 pm 17:53 Clear 34 1.1 28 -2.2 79 79 Calm 30.42 1030 10 16 0.00 0.00
6:53 pm 18:53 Clear 29 -1.7 26 -3.3 89 89 Calm 30.44 1031 10 16 0.00 0.00
7:53 pm 19:53 Clear 28 -2.2 27 -2.8 96 96 Calm 30.45 1031 9 14 0.00 0.00
8:53 pm 20:53 Clear with Mist and Fog 26 -3.3 25 -3.9 96 96 Calm 30.46 1032 6 10 0.00 0.00
9:53 pm 21:53 Clear with Mist and Fog 26 -3.3 26 -3.3 100 100 Calm 30.47 1032 6 10 0.00 0.00
10:53 pm 22:53 Clear with Mist and Fog 24 -4.4 24 -4.4 100 100 Calm 30.46 1032 3 5 0.00 0.00
11:20 pm 23:20 Clear with Mist and Fog 23 -5 23 -5 100 100 Calm 30.48 1032 2 3 0.00 0.00
11:34 pm 23:34 Clear with Mist and Fog 25 -4 25 -4 100 100 Calm 30.48 1032 3 5 0.00 0.00
11:53 pm 23:53 Clear with Mist and Fog 24 -4.4 23 -5 96 96 Calm 30.48 1032 4 6 0.00 0.00

Powered by AerisWeather